Location: Burgerwiesen
(48.6500°N, 15.6167°E)
Time: 17:24:12
(UTC+00:00)

BREEZE-M DEB (TANK) - Pass Details

Date: 09 April 2020
Orbit: 321 x 11933 km, 49.7° (Epoch: 24 May)

Event Time Altitude Azimuth Distance (km) Brightness Sun altitude
Rises 18:32:39 0° 288° (WNW) 5,723 10.9 -9.0°
Reaches altitude 10° 18:37:54 10° 286° (WNW) 3,409 9.0 -9.8°
Maximum altitude 18:44:27 63° 207° (SSW) 656 3.8 -10.8°
Enters shadow 18:46:35 17° 128° (SE) 1,173 4.5 -11.1°
